Change the Weather History Date:

Sunday, January 27, 2013

  Actual Average Record
Temperature  
Mean Temperature 50 °F -  
Max Temperature 62 °F 38 °F 64 °F (2002)
Min Temperature 39 °F 17 °F -8 °F (1963)
Degree Days  
Heating Degree Days 14    
Moisture  
Dew Point 45 °F    
Average Humidity 85    
Maximum Humidity 96    
Minimum Humidity 67    
Precipitation  
Precipitation 0.05 in - - ()
Sea Level Pressure  
Sea Level Pressure 29.84 in    
Wind  
Wind Speed 13 mph (South)    
Max Wind Speed 23 mph    
Max Gust Speed 30 mph    
Visibility 8 miles    
Events Rain    
Averages and records for this station are not official NWS values.
T = Trace of Precipitation, MM = Missing Value Source: NWS Daily Summary

Daily Weather History Graph

Daily Weather History Graph

Search for Another Location

Airport or City:

Trip Planner

Search our weather history database for the weather conditions in past years. The results will help you decide how hot, cold, wet, or windy it might be!

Date:

Astronomy

Jan. 27, 2013 Rise Set
Actual Time 7:32 AM CST 5:38 PM CST
Civil Twilight 7:04 AM CST 6:06 PM CST
Nautical Twilight 6:32 AM CST 6:39 PM CST
Astronomical Twilight 6:00 AM CST 7:10 PM CST
Moon 6:32 PM CST (1/27) 7:27 AM CST (1/27)
Length of Visible Light 11h 02m
Length of Day
10h 05m
Full, 100% of the Moon is Illuminated
Jan 27
Full
Feb 3
Last Quarter
Feb 10
New
Feb 17
First Quarter
Feb 25
Full

Hourly Weather History & Observations

Time (CST) Temp. Windchill Dew Point Humidity Pressure Visibility Wind Dir Wind Speed Gust Speed Precip Events Conditions
12:53 AM 41.0 °F 34.7 °F 35.1 °F 79% 30.04 in 10.0 mi South 10.4 mph - 0.03 in Rain Light Rain
1:36 AM 41.0 °F 34.7 °F 35.6 °F 81% 30.02 in 10.0 mi SSE 10.4 mph - 0.01 in Rain Light Rain
1:53 AM 39.9 °F 33.4 °F 35.1 °F 83% 30.02 in 10.0 mi SSE 10.4 mph - 0.01 in Rain Light Rain
2:53 AM 41.0 °F 34.7 °F 35.1 °F 79% 30.00 in 10.0 mi SSE 10.4 mph - 0.01 in   Overcast
3:53 AM 41.0 °F 34.7 °F 35.1 °F 79% 29.99 in 10.0 mi SSE 10.4 mph - N/A   Overcast
4:30 AM 41.0 °F 34.7 °F 35.6 °F 81% 29.95 in 10.0 mi SE 10.4 mph - 0.00 in Rain Light Rain
4:53 AM 41.0 °F 33.9 °F 35.1 °F 79% 29.94 in 10.0 mi SE 12.7 mph - 0.00 in   Overcast
5:07 AM 41.0 °F 33.1 °F 33.8 °F 76% 29.91 in 10.0 mi SE 15.0 mph - N/A   Overcast
5:53 AM 42.1 °F 34.9 °F 35.1 °F 76% 29.92 in 10.0 mi SSE 13.8 mph - N/A   Overcast
6:39 AM 42.8 °F 35.8 °F 37.4 °F 81% 29.89 in 10.0 mi SSE 13.8 mph - N/A   Overcast
6:53 AM 43.0 °F 35.4 °F 37.0 °F 80% 29.90 in 10.0 mi SSE 16.1 mph 21.9 mph N/A   Overcast
7:53 AM 43.0 °F 35.7 °F 39.0 °F 86% 29.89 in 10.0 mi SSE 15.0 mph - N/A   Overcast
8:00 AM 42.8 °F 35.8 °F 39.2 °F 87% 29.88 in 9.0 mi SSE 13.8 mph 21.9 mph N/A   Overcast
8:53 AM 45.0 °F 37.6 °F 42.1 °F 90% 29.87 in 7.0 mi South 17.3 mph 24.2 mph N/A   Overcast
9:53 AM 46.9 °F - 44.1 °F 90% 29.84 in 6.0 mi South 15.0 mph - N/A   Overcast
10:53 AM 48.0 °F - 46.0 °F 93% 29.85 in 2.5 mi South 20.7 mph 27.6 mph N/A   Overcast
11:26 AM 48.2 °F - 46.4 °F 93% 29.82 in 3.0 mi South 23.0 mph 28.8 mph N/A   Overcast
11:41 AM 48.2 °F - 46.4 °F 93% 29.82 in 2.5 mi South 18.4 mph 27.6 mph N/A   Overcast
11:53 AM 48.9 °F - 46.9 °F 93% 29.82 in 2.5 mi South 20.7 mph 27.6 mph N/A   Overcast
12:39 PM 50.0 °F - 48.2 °F 94% 29.79 in 3.0 mi South 18.4 mph 29.9 mph N/A   Overcast
12:53 PM 50.0 °F - 48.9 °F 96% 29.78 in 3.0 mi South 21.9 mph 28.8 mph N/A   Overcast
1:53 PM 51.1 °F - 48.9 °F 92% 29.75 in 6.0 mi South 19.6 mph 25.3 mph N/A   Overcast
2:46 PM 53.6 °F - 50.0 °F 88% 29.74 in 10.0 mi South 15.0 mph 25.3 mph N/A   Overcast
2:53 PM 55.0 °F - 50.0 °F 83% 29.75 in 10.0 mi South 17.3 mph 25.3 mph N/A   Overcast
3:05 PM 55.4 °F - 51.8 °F 88% 29.74 in 10.0 mi South 16.1 mph 25.3 mph N/A   Overcast
3:45 PM 59.0 °F - 51.8 °F 77% 29.72 in 10.0 mi South 16.1 mph 27.6 mph N/A   Scattered Clouds
3:53 PM 59.0 °F - 51.1 °F 75% 29.73 in 10.0 mi South 15.0 mph 25.3 mph N/A   Partly Cloudy
4:53 PM 62.1 °F - 51.1 °F 67% 29.72 in 10.0 mi SSW 18.4 mph 28.8 mph N/A   Partly Cloudy
5:53 PM 59.0 °F - 50.0 °F 72% 29.74 in 10.0 mi South 13.8 mph - N/A   Clear
6:53 PM 57.0 °F - 50.0 °F 77% 29.75 in 10.0 mi South 16.1 mph 21.9 mph N/A   Clear
7:53 PM 55.0 °F - 51.1 °F 86% 29.78 in 10.0 mi South 15.0 mph - N/A   Clear
8:53 PM 55.0 °F - 52.0 °F 89% 29.80 in 10.0 mi SSW 10.4 mph - N/A   Mostly Cloudy
9:04 PM 55.4 °F - 51.8 °F 88% 29.80 in 10.0 mi SSW 11.5 mph - N/A   Mostly Cloudy
9:25 PM 55.4 °F - 51.8 °F 88% 29.81 in 10.0 mi SSW 9.2 mph - N/A   Overcast
9:53 PM 55.0 °F - 52.0 °F 89% 29.81 in 10.0 mi SSW 9.2 mph - N/A   Overcast
10:53 PM 55.9 °F - 53.1 °F 90% 29.82 in 10.0 mi SSW 10.4 mph - N/A   Overcast
11:17 PM 55.4 °F - 53.6 °F 94% 29.82 in 10.0 mi SSW 10.4 mph - N/A   Overcast
11:53 PM 57.0 °F - 54.0 °F 89% 29.83 in 10.0 mi West 8.1 mph - N/A   Overcast